Hourly Data Report for May 16, 2022

CLYDE RIVER A
NUNAVUT
Current Station Operator: NAVCAN

70°29'09.000" N
68°31'01.000" W
26.50 m
2400804
71090
YCY

Download Data

Hourly Data (May 2022)
Hourly Data Report for May 16, 2022
TIME
LST
Temp Definition
°C
Dew Point Definition
°C
Rel Hum Definition
%
Precip. Amount Definition
mm

Wind Dir Definition
10's deg

Wind Spd Definition
km/h
Visibility Definition
km
Stn Press Definition
kPa
Hmdx Definition


Wind Chill Definition


Weather Definition


00:00 -10.1 -11.7 88 0.0 31 5 16.1 101.65   -13 LegendNANA
01:00 -8.9 -11.5 82 0.0 30 9 16.1 101.66   -14 LegendNANA
02:00 -10.8 -12.7 86 0.0 31 21 16.1 101.68   -19 LegendNANA
03:00 -10.7 -12.0 90 0.0 30 15 16.1 101.71   -18 LegendNANA
04:00 -6.6 -8.1 89 0.0 27 4 16.1 101.76   -9 LegendNANA
05:00 -6.9 -8.5 89 0.0   0 16.1 101.77     LegendNANA
06:00 -6.9 -8.0 92 0.0   0 16.1 101.81     LegendNANA
07:00 -7.8 -9.1 91 0.0 26 5 16.1 101.85   -10 LegendNANA
08:00 -6.3 -7.8 89 0.0 26 5 16.1 101.87   -9 LegendNANA
09:00 -5.4 -6.4 92 0.0 2 9 16.1 101.89   -9 LegendNANA
10:00 -4.6 -5.4 94 0.0 36 5 16.1 101.91   -7 LegendNANA
11:00 -2.9 -4.6 88 0.0 LegendMM 4 16.1 101.92   -4 LegendNANA
12:00 -2.6 -4.3 88 0.0 LegendMM 4 16.1 101.94   -4 LegendNANA
13:00 -2.1 -4.2 86 0.0 31 8 16.1 101.97   -5 LegendNANA
14:00 -1.4 -3.3 87 0.0 33 11 14.5 101.99   -5 LegendNANA
15:00 -1.3 -3.5 85 0.0 32 11 16.1 102.01   -5 LegendNANA
16:00 -1.2 -3.2 87 0.0 33 13 16.1 102.03   -5 LegendNANA
17:00 -1.6 -3.4 88 0.0 32 15 16.1 102.04   -6 LegendNANA
18:00 -2.2 -4.0 88 0.0 32 15 16.1 102.07   -7 LegendNANA
19:00 -3.9 -5.5 89 0.0 31 13 16.1 102.10   -9 LegendNANA
20:00 -4.9 -6.3 90 0.0 30 15 16.1 102.12   -10 LegendNANA
21:00 -5.1 -6.6 89 0.0 30 17 16.1 102.14   -11 LegendNANA
22:00 -6.1 -7.3 91 0.0 31 17 16.1 102.14   -12 LegendNANA
23:00 -5.3 -6.4 92 0.0 31 18 16.1 102.14   -12 LegendNANA

Notes on Data Quality.

Legend

  • E = Estimated
  • M = Missing
  • NA = Not Available*
  • [empty] = Indicates an unobserved value
Date modified: